Location: Home
(42.5358°N, 72.7383°W)
Time: 23:29:05
(UTC-05:00)

YUBILEINY - Visible Passes

Search period start: 24 January 2022 00:00
Search period end: 03 February 2022 00:00
Orbit: 1479 x 1508 km, 82.5° (Epoch: 24 January)

Date Brightness Start Highest point End Pass type
(mag) Time Alt. Az. Time Alt. Az. Time Alt. Az.
24 Jan ? 20:31:15 10° N 20:33:59 22° N 20:33:59 22° N visible
24 Jan ? 22:28:44 10° NNW 22:29:54 14° NNW 22:29:54 14° NNW visible
25 Jan ? 19:42:07 10° N 19:45:08 21° NNE 19:45:08 21° NNE visible
25 Jan ? 21:38:32 10° NNW 21:41:04 21° NNW 21:41:04 21° NNW visible
26 Jan ? 18:53:41 10° NNE 18:56:19 15° NE 18:56:19 15° NE visible
26 Jan ? 20:48:46 10° N 20:52:15 28° N 20:52:15 28° N visible
26 Jan ? 22:47:18 10° NW 22:48:11 12° NW 22:48:11 12° NW visible
27 Jan ? 19:59:22 10° N 20:03:29 29° NNE 20:03:29 29° NNE visible
27 Jan ? 21:56:32 10° NNW 21:59:26 22° NNW 21:59:26 22° NNW visible
28 Jan ? 19:10:24 10° N 19:14:47 23° NE 19:14:47 23° NE visible
28 Jan ? 21:06:28 10° NNW 21:10:43 33° NNW 21:10:43 33° NNW visible
29 Jan ? 18:22:22 10° NNE 18:26:07 15° NE 18:26:07 15° NE visible
29 Jan ? 20:16:49 10° N 20:22:04 40° N 20:22:04 40° N visible
29 Jan ? 22:14:51 10° NNW 22:18:01 19° NW 22:18:01 19° NW visible
30 Jan ? 19:27:31 10° N 19:33:29 36° NE 19:33:29 36° NE visible
30 Jan ? 21:24:22 10° NNW 21:29:27 34° NW 21:29:27 34° NW visible
31 Jan ? 18:38:45 10° NNE 18:45:00 23° ENE 18:45:00 23° ENE visible
31 Jan ? 20:34:27 10° N 20:40:57 55° NNW 20:40:57 55° NNW visible
31 Jan ? 22:33:54 10° NW 22:36:55 15° WNW 22:36:55 15° WNW visible
01 Feb ? 17:51:25 10° NNE 17:54:35 12° NE 17:56:37 11° ENE visible
01 Feb ? 19:44:54 10° N 19:52:35 57° NE 19:52:35 57° NE visible
01 Feb ? 21:42:32 10° NNW 21:48:34 29° WNW 21:48:34 29° WNW visible
02 Feb ? 18:55:44 10° N 19:03:33 34° ENE 19:04:23 34° E visible
02 Feb ? 20:52:15 10° NNW 21:00:22 54° W 21:00:22 54° W visible
